• Join FlightAware (Why Join?)
  • Login
  • US Flag 
05:44PM EDT


 

Airport Tracker/Info


-or-


 

Live Flight TrackerFlight Track Log ✈ N830QS ✈ 14-Jan-2014 ✈ KBWI - KALB

Flight Track Log - Related Links

Times and Time Zones

All times are in EST time to prevent confusion due to time zone crossing. See the N830QS flight status page for this flight to view local times or setup timezone preferences in your user account.

Time Position Orientation Groundspeed Altitude Reporting Facility
EST Latitude Longitude Course Direction KTS MPH feet Rate Location/Type
04:27PM 39.1536 -76.7747 135° Southeast 210 242 5,000  Level Washington Center
04:28PM 39.1061 -76.7125 135° Southeast 122 140 7,800 2,400 Climbing Washington Center
04:29PM 39.1197 -76.5975 81° East 159 183 9,800 2,280 Climbing Washington Center
04:30PM 39.1289 -76.4881 84° East 238 274 12,300 2,220 Climbing Washington Center
04:31PM 39.1381 -76.3597 85° East 301 346 14,300 2,640 Climbing Washington Center
04:32PM 39.1492 -76.2367 83° East 319 367 17,700 2,760 Climbing Washington Center
04:33PM 39.1686 -76.0894 80° East 355 409 19,900 2,040 Climbing Washington Center
04:34PM 39.1839 -75.9531 82° East 375 432 21,800 1,980 Climbing Washington Center
04:35PM 39.2383 -75.8167 63° Northeast 427 491 23,900 1,440 Climbing Washington Center
04:36PM 39.3364 -75.6936 44° Northeast 447 514 24,700 360 Climbing Washington Center
04:38PM 39.5397 -75.4336 45° Northeast 507 583 25,000 60 Climbing New York Center
04:39PM 39.6431 -75.2975 45° Northeast 520 598 25,000  Level New York Center
04:40PM 39.7267 -75.1814 47° Northeast 527 606 25,000 240 Level New York Center
04:41PM 39.8369 -75.0181 49° Northeast 538 619 25,500  Climbing New York Center
04:42PM 39.9381 -74.8753 47° Northeast 543 625 25,000 -300 Descending New York Center
04:43PM 40.0497 -74.7164 47° Northeast 543 625 25,000  Level New York Center
04:44PM 40.1544 -74.5731 46° Northeast 543 625 25,000 -540 Level New York Center
04:45PM 40.2481 -74.4475 46° Northeast 543 625 24,000 -360 Descending New York Center
04:47PM 40.4792 -74.2033 39° Northeast 540 621 24,000  Level Boston Center
04:48PM 40.5958 -74.0789 39° Northeast 540 621 24,000  Level Boston Center
04:49PM 40.7242 -73.9392 40° Northeast 536 617 24,000  Level Boston Center
04:50PM 40.8375 -73.8114 40° Northeast 535 616 24,000  Level Boston Center
04:51PM 40.9458 -73.6767 43° Northeast 534 615 24,000  Level Boston Center
04:52PM 41.0531 -73.5428 43° Northeast 530 610 24,000 -480 Level Boston Center
04:53PM 41.1622 -73.4111 42° Northeast 528 608 23,100 -1,260 Descending Boston Center
04:54PM 41.2894 -73.3236 27° Northeast 523 602 21,400 -1,620 Descending Boston Center
04:55PM 41.4144 -73.3503 351° North 466 536 19,900 -1,200 Descending Boston Center
04:56PM 41.5475 -73.3850 349° North 428 493 19,000 -540 Descending Boston Center
04:57PM 41.6483 -73.4103 349° North 376 433 18,800 -1,080 Descending Boston Center
04:58PM 41.7536 -73.4364 350° North 362 417 16,800 -1,800 Descending Boston Center
04:59PM 41.8531 -73.4622 349° North 364 419 15,200 -1,620 Descending Boston Center
05:00PM 41.9531 -73.4856 350° North 366 421 13,500 -1,620 Descending Boston Center
05:01PM 41.9853 -73.4958 347° North 364 419 13,000 -1,800 Descending Boston Center
05:01PM 41.9939 -73.4956 North 363 418 12,800 -1,560 Descending Boston Center
05:01PM 42.0492 -73.5106 349° North 355 409 11,900 -1,620 Descending Boston Center
05:02PM 42.0900 -73.5217 349° North 354 407 11,200 -900 Descending Boston Center
05:02PM 42.1544 -73.5172 North 370 426 11,000 -240 Descending Boston Center
05:03PM 42.1903 -73.5258 350° North 354 407 11,000 -120 Level Boston Center
05:03PM 42.2350 -73.5583 332° Northwest 312 359 10,900 -1,140 Descending Boston Center
05:04PM 42.2622 -73.5783 331° Northwest 285 328 9,900 -2,160 Descending Boston Center
05:05PM 42.3067 -73.6108 332° Northwest 293 337 8,600 -2,100 Descending Boston Center
05:05PM 42.3361 -73.6319 332° Northwest 269 310 7,800 -2,100 Descending Boston Center
05:06PM 42.3758 -73.6606 332° Northwest 261 300 6,500 -2,100 Descending Boston Center
05:06PM 42.3964 -73.6781 328° Northwest 241 277 5,700 -1,680 Descending Boston Center
05:07PM 42.4328 -73.7031 333° Northwest 236 272 4,800 -1,500 Descending Boston Center
05:07PM 42.4508 -73.7194 326° Northwest 220 253 4,200 -1,620 Descending Boston Center
05:08PM 42.4875 -73.7442 334° Northwest 227 261 3,200 -1,200 Descending Boston Center
05:08PM 42.5056 -73.7611 325° Northwest 226 260 3,000 -240 Descending Boston Center
05:09PM 42.5422 -73.7850 334° Northwest 226 260 3,000  Level Boston Center
05:09PM 42.5578 -73.7931 339° North 206 237 3,000  Level Boston Center
05:10PM 42.5950 -73.7983 354° North 182 209 3,000  Level Boston Center
05:10PM 42.6061 -73.7978 North 164 189 3,000 -660 Level Boston Center
05:11PM 42.6350 -73.7997 357° North 149 171 2,400 -840 Descending Boston Center
05:11PM 42.6400 -73.8006 353° North 116 133 2,200 -600 Descending Boston Center
05:12PM 42.6644 -73.8008 360° North 115 132 1,800 -600 Descending Boston Center
05:12PM 42.6719 -73.8025 351° North 102 117 1,600 -600 Descending Boston Center
05:13PM 42.6939 -73.8025 360° North 107 123 1,200 -660 Descending Boston Center
05:13PM 42.7017 -73.8039 353° North 107 123 1,000 -600 Descending Boston Center
05:14PM 42.7269 -73.8042 360° North 109 125 600 -420 Descending Boston Center
05:15PM 42.7486 -73.8058 357° North 90 104 300 -300 Descending Boston Center
05:17PM 42.7491 -73.8020 80° East  Level Estimated